This is the latest recevied weather packets stored in our database for station/object KG5WBN. If no packets are shown the sender has not sent any weather packets the latest 10 day(s).
| Time | Temp. | Humidity | Pressure | Rain* | Wind** | Luminosity | Snow |
|---|---|---|---|---|---|---|---|
| 1778182096 | 23.89° C | 84% | 1012.9 hPa | 0 mm | - | 153 W/m² | - |
| 1778181792 | 23.89° C | 84% | 1012.9 hPa | 0 mm | - | 121 W/m² | - |
| 1778181488 | 23.89° C | 85% | 1012.9 hPa | 0 mm | - | 126 W/m² | - |
| 1778181185 | 23.89° C | 86% | 1013.2 hPa | 0 mm | - | 117 W/m² | - |
| 1778180882 | 23.33° C | 86% | 1012.9 hPa | 0 mm | - | 130 W/m² | - |
| 1778180581 | 23.33° C | 86% | 1012.9 hPa | 0 mm | - | 95 W/m² | - |
| 1778180279 | 23.33° C | 87% | 1013.2 hPa | 0 mm | - | 104 W/m² | - |
| 1778179975 | 22.78° C | 87% | 1013.2 hPa | 0 mm | - | 68 W/m² | - |
| 1778179673 | 22.78° C | 87% | 1013.2 hPa | 0 mm | - | 86 W/m² | - |
| 1778179370 | 22.78° C | 86% | 1013.2 hPa | 0 mm | - | 83 W/m² | - |
| 1778179067 | 23.33° C | 86% | 1013.2 hPa | 0 mm | - | 121 W/m² | - |
| 1778178764 | 23.33° C | 86% | 1013.2 hPa | 0 mm | - | 129 W/m² | - |
| 1778178462 | 23.33° C | 88% | 1013.2 hPa | 0 mm | - | 153 W/m² | - |
| 1778178156 | 22.78° C | 90% | 1013.5 hPa | 0 mm | - | 124 W/m² | - |
| 1778177854 | 22.78° C | 90% | 1013.5 hPa | 0 mm | - | 108 W/m² | - |
| 1778177550 | 22.78° C | 92% | 1013.5 hPa | 0 mm | - | 118 W/m² | - |
| 1778177247 | 22.22° C | 93% | 1013.5 hPa | 0 mm | - | 101 W/m² | - |
| 1778176944 | 22.22° C | 94% | 1013.5 hPa | 0 mm | - | 116 W/m² | - |
| 1778176639 | 22.22° C | 95% | 1013.5 hPa | 0 mm | - | 97 W/m² | - |
| 1778176336 | 22.22° C | 96% | 1013.9 hPa | 0 mm | - | 78 W/m² | - |
| 1778176034 | 22.22° C | 70% | 1013.9 hPa | 0 mm | - | 131 W/m² | - |
| 1778175732 | 22.22° C | 70% | 1013.9 hPa | 0 mm | - | 93 W/m² | - |
| 1778175429 | 22.22° C | 71% | 1013.5 hPa | 0 mm | - | 119 W/m² | - |
| 1778175125 | 22.22° C | 71% | 1013.5 hPa | 0 mm | - | 74 W/m² | - |
| 1778174822 | 22.22° C | 72% | 1013.9 hPa | 0 mm | - | 86 W/m² | - |
* Rain latest hour (hover to see other rain measurements)
** Current wind speed in m/s (hover to see current wind gust speed)